This is the latest recevied weather packets stored in our database for station/object T10BNorth. If no packets are shown the sender has not sent any weather packets the latest 10 day(s).
| Time | Temp. | Humidity | Pressure | Rain* | Wind** | Luminosity | Snow |
|---|---|---|---|---|---|---|---|
| 1778255554 | 7.78° C | 62% | 1007 hPa | 0 mm | - | 541 W/m² | - |
| 1778255494 | 7.78° C | 61% | 1007 hPa | 0 mm | - | 541 W/m² | - |
| 1778255439 | 7.78° C | 61% | 1007.1 hPa | 0 mm | - | 541 W/m² | - |
| 1778255372 | 7.78° C | 61% | 1007.1 hPa | 0 mm | - | 503 W/m² | - |
| 1778255313 | 7.78° C | 62% | 1007.1 hPa | 0 mm | - | 503 W/m² | - |
| 1778255250 | 7.78° C | 61% | 1007.1 hPa | 0 mm | - | 457 W/m² | - |
| 1778255191 | 7.78° C | 61% | 1007.1 hPa | 0 mm | - | 455 W/m² | - |
| 1778255133 | 7.78° C | 62% | 1007.1 hPa | 0 mm | - | 471 W/m² | - |
| 1778255066 | 7.22° C | 62% | 1007.2 hPa | 0 mm | - | 461 W/m² | - |
| 1778255008 | 7.22° C | 62% | 1007.2 hPa | 0 mm | - | 461 W/m² | - |
| 1778254944 | 7.22° C | 61% | 1007.2 hPa | 0 mm | - | 473 W/m² | - |
| 1778254884 | 7.22° C | 63% | 1007.2 hPa | 0 mm | - | 482 W/m² | - |
| 1778254826 | 7.22° C | 63% | 1007.2 hPa | 0 mm | - | 476 W/m² | - |
| 1778254754 | 7.22° C | 61% | 1007.2 hPa | 0 mm | - | 466 W/m² | - |
| 1778254693 | 7.22° C | 64% | 1007.2 hPa | 0 mm | - | 594 W/m² | - |
| 1778254631 | 7.22° C | 63% | 1007.2 hPa | 0 mm | - | 594 W/m² | - |
| 1778254573 | 6.67° C | 63% | 1007.3 hPa | 0 mm | - | 455 W/m² | - |
| 1778254517 | 6.67° C | 63% | 1007.2 hPa | 0 mm | - | 455 W/m² | - |
| 1778254446 | 6.67° C | 63% | 1007.2 hPa | 0 mm | - | 455 W/m² | - |
| 1778254385 | 6.67° C | 62% | 1007.2 hPa | 0 mm | - | 376 W/m² | - |
| 1778254327 | 6.67° C | 62% | 1007.2 hPa | 0 mm | - | 304 W/m² | - |
| 1778254267 | 6.67° C | 63% | 1007.2 hPa | 0 mm | - | 283 W/m² | - |
| 1778254211 | 6.67° C | 64% | 1007.2 hPa | 0 mm | - | 258 W/m² | - |
| 1778254140 | 6.67° C | 63% | 1007.2 hPa | 0 mm | - | 244 W/m² | - |
| 1778254080 | 6.67° C | 63% | 1007.2 hPa | 0 mm | - | 218 W/m² | - |
* Rain latest hour (hover to see other rain measurements)
** Current wind speed in m/s (hover to see current wind gust speed)